Phuket, Thailand

5:07 AM ICT on January 17, 2017 (GMT +0700)
Phuket International

Weather History for VTSP - March, 2013

Change the Weather History Date:

Wednesday, March 20, 2013

  Actual Average Record
Temperature  
Mean Temperature 84 °F -  
Max Temperature 92 °F 91 °F 102 °F (1998)
Min Temperature 76 °F 77 °F 72 °F (2014)
Cooling Degree Days 19    
Growing Degree Days 34 (Base 50)    
Moisture  
Dew Point 75 °F    
Average Humidity 70    
Maximum Humidity 94    
Minimum Humidity 49    
Precipitation  
Precipitation 0.00 in 0.16 in - ()
Sea Level Pressure  
Sea Level Pressure 29.82 in    
Wind  
Wind Speed 5 mph ()    
Max Wind Speed 15 mph    
Max Gust Speed -    
Visibility 5.2 miles    
Events      
Averages and records for this station are not official NWS values.
T = Trace of Precipitation, MM = Missing Value Source: Averaged Metar Reports

Daily Weather History Graph

Daily Weather History Graph

Search for Another Location

Airport or City:

Trip Planner

Search our weather history database for the weather conditions in past years. The results will help you decide how hot, cold, wet, or windy it might be!

Date:

Astronomy

Mar. 20, 2013 Rise Set
Actual Time 6:31 AM ICT 6:37 PM ICT
Civil Twilight 6:10 AM ICT 6:58 PM ICT
Nautical Twilight 5:45 AM ICT 7:22 PM ICT
Astronomical Twilight 5:21 AM ICT 7:46 PM ICT
Moon 12:46 PM ICT (3/20) 12:45 AM ICT (3/20)
Length of Visible Light 12h 48m
Length of Day
12h 06m
First Quarter, 55% of the Moon is Illuminated
Mar 20
First Quarter
Mar 27
Full
Apr 3
Last Quarter
Apr 10
New
Apr 18
First Quarter

Hourly Weather History & Observations

Time (ICT) Temp. Heat Index Dew Point Humidity Pressure Visibility Wind Dir Wind Speed Gust Speed Precip Events Conditions
12:00 AM 82.4 °F 89.5 °F 75.2 °F 79% 29.86 in 5.6 mi NW 4.6 mph - N/A   Scattered Clouds
12:30 AM 84.2 °F 92.3 °F 75.2 °F 74% 29.83 in 5.6 mi West 4.6 mph - N/A   Scattered Clouds
1:00 AM 84 °F - 76 °F 70% 29.81 in 6 mi West 8.1 mph - -   Mist
1:00 AM 84.2 °F 92.3 °F 75.2 °F 74% 29.83 in 5.6 mi West 8.1 mph - N/A   Scattered Clouds
1:30 AM 84.2 °F 90.9 °F 73.4 °F 70% 29.83 in 5.6 mi WNW 5.8 mph - N/A   Scattered Clouds
2:00 AM 82.4 °F 88.2 °F 73.4 °F 74% 29.80 in 5.6 mi Calm Calm - N/A   Scattered Clouds
2:30 AM 80.6 °F 85.4 °F 73.4 °F 79% 29.80 in 5.6 mi Calm Calm - N/A   Scattered Clouds
3:00 AM 78.8 °F - 73.4 °F 83% 29.80 in 5.6 mi Calm Calm - N/A   Scattered Clouds
3:30 AM 78.8 °F - 73.4 °F 83% 29.80 in 5.6 mi Calm Calm - N/A   Scattered Clouds
4:00 AM 78.8 °F - 73.4 °F 83% 29.80 in 5.6 mi Calm Calm - N/A   Scattered Clouds
5:00 AM 77.0 °F - 73.4 °F 89% 29.80 in 5.6 mi Calm Calm - N/A   Scattered Clouds
6:00 AM 77.0 °F - 73.4 °F 89% 29.83 in 5.6 mi Calm Calm - N/A   Scattered Clouds
6:30 AM 77.0 °F - 75.2 °F 94% 29.83 in 5.6 mi Calm Calm - N/A   Scattered Clouds
7:00 AM 78 °F - 76 °F 91% 29.79 in 6 mi Calm Calm - -   Mist
7:00 AM 78.8 °F - 75.2 °F 89% 29.83 in 5.6 mi Calm Calm - N/A   Scattered Clouds
7:30 AM 80.6 °F 87.1 °F 77.0 °F 89% 29.86 in 5.6 mi Calm Calm - N/A   Scattered Clouds
8:00 AM 84.2 °F 92.3 °F 75.2 °F 74% 29.86 in 5.6 mi NNE 4.6 mph - N/A   Scattered Clouds
8:30 AM 87.8 °F 95.6 °F 73.4 °F 62% 29.89 in 5.0 mi NE 4.6 mph - N/A   Mostly Cloudy
9:00 AM 87.8 °F 95.6 °F 73.4 °F 62% 29.89 in 5.0 mi ENE 5.8 mph - N/A   Mostly Cloudy
9:30 AM 87.8 °F 95.6 °F 73.4 °F 62% 29.89 in 5.0 mi NE 5.8 mph - N/A   Mostly Cloudy
10:00 AM 89.6 °F 96.2 °F 71.6 °F 55% 29.89 in 5.0 mi East 6.9 mph - N/A   Mostly Cloudy
10:30 AM 91.4 °F 98.4 °F 71.6 °F 52% 29.86 in 5.0 mi Variable 4.6 mph - N/A   Mostly Cloudy
11:00 AM 91.4 °F 98.4 °F 71.6 °F 52% 29.86 in 5.0 mi Variable 4.6 mph - N/A   Mostly Cloudy
11:30 AM 93.2 °F 102.4 °F 73.4 °F 52% 29.86 in 5.0 mi Variable 3.5 mph - N/A   Mostly Cloudy
12:00 PM 93.2 °F 100.5 °F 71.6 °F 49% 29.86 in 5.0 mi Variable 4.6 mph - N/A   Mostly Cloudy
12:30 PM 95.0 °F 104.5 °F 73.4 °F 49% 29.86 in 5.0 mi Variable 3.5 mph - N/A   Mostly Cloudy
1:00 PM 91 °F - 76 °F 53% 29.80 in 5 mi West 8.1 mph - -   Haze
1:00 PM 91.4 °F 100.1 °F 73.4 °F 55% 29.83 in 5.0 mi Variable 6.9 mph - N/A   Mostly Cloudy
1:30 PM 91.4 °F 102.5 °F 75.2 °F 59% 29.80 in 5.0 mi West 8.1 mph - N/A   Mostly Cloudy
2:00 PM 91.4 °F 100.1 °F 73.4 °F 55% 29.83 in 5.0 mi West 11.5 mph - N/A   Mostly Cloudy
2:30 PM 91.4 °F 102.5 °F 75.2 °F 59% 29.80 in 5.0 mi West 10.4 mph - N/A   Mostly Cloudy
3:00 PM 91.4 °F 102.5 °F 75.2 °F 59% 29.77 in 5.0 mi West 11.5 mph - N/A   Mostly Cloudy
3:30 PM 91.4 °F 102.5 °F 75.2 °F 59% 29.77 in 5.0 mi West 15.0 mph - N/A   Mostly Cloudy
4:00 PM 91.4 °F 102.5 °F 75.2 °F 59% 29.77 in 5.0 mi West 15.0 mph - N/A   Mostly Cloudy
4:30 PM 87.8 °F 95.6 °F 73.4 °F 62% 29.77 in 5.0 mi West 12.7 mph - N/A   Mostly Cloudy
5:00 PM 87.8 °F 95.6 °F 73.4 °F 62% 29.77 in 5.0 mi West 12.7 mph - N/A   Mostly Cloudy
5:30 PM 87.8 °F 97.6 °F 75.2 °F 66% 29.77 in 5.0 mi West 11.5 mph - N/A   Mostly Cloudy
6:00 PM 87.8 °F 97.6 °F 75.2 °F 66% 29.77 in 5.0 mi WSW 8.1 mph - N/A   Mostly Cloudy
6:30 PM 86.0 °F 95.1 °F 75.2 °F 70% 29.80 in 5.0 mi West 11.5 mph - N/A   Mostly Cloudy
7:00 PM 87 °F - 77 °F 65% 29.76 in 5 mi West 8.1 mph - -   Mist
7:00 PM 86.0 °F 95.1 °F 75.2 °F 70% 29.80 in 5.0 mi West 9.2 mph - N/A   Mostly Cloudy
7:30 PM 86.0 °F 95.1 °F 75.2 °F 70% 29.80 in 5.0 mi WNW 6.9 mph - N/A   Mostly Cloudy
8:00 PM 86.0 °F 95.1 °F 75.2 °F 70% 29.80 in 5.0 mi WNW 6.9 mph - N/A   Mostly Cloudy
8:30 PM 84.2 °F 94.1 °F 77.0 °F 79% 29.83 in 5.0 mi WNW 4.6 mph - N/A   Mostly Cloudy
9:00 PM 84.2 °F 94.1 °F 77.0 °F 79% 29.83 in 5.0 mi WNW 4.6 mph - N/A   Scattered Clouds
9:30 PM 84.2 °F 94.1 °F 77.0 °F 79% 29.83 in 5.0 mi NW 5.8 mph - N/A   Scattered Clouds
10:00 PM 84.2 °F 92.3 °F 75.2 °F 74% 29.86 in 5.0 mi NNW 5.8 mph - N/A   Mostly Cloudy
10:30 PM 84.2 °F 94.1 °F 77.0 °F 79% 29.86 in 5.0 mi Variable 4.6 mph - N/A   Scattered Clouds
11:00 PM 84.2 °F 94.1 °F 77.0 °F 79% 29.86 in 5.0 mi WNW 6.9 mph - N/A   Scattered Clouds
11:30 PM 84.2 °F 94.1 °F 77.0 °F 79% 29.86 in 5.0 mi NW 6.9 mph - N/A   Scattered Clouds